LEMUR-2-SUSURRUS (46502 NORAD) Tracking and Keplerian Element Data

This shows tracking and keplerian element data for the satellite.

Feedback or suggestion? Click here.




ElementValue
Catalog46502
NameLEMUR-2-SUSURRUS
Epoch Orbit984
Epoch Day338.56181608
Epoch Year2020
RAAN271.3168
Inclination97.6741
Eccentricity0.0012767
Argument of Perigee39.1799
Mean Anonmoly321.0362
Mean Motion15.0225745
Decay Rate4.066E-05
L11 46502U 20068S 20338.56181608 .00004066 00000-0 31229-3 0 9990
L22 46502 97.6741 271.3168 0012767 39.1799 321.0362 15.02257450 9841

Live tracking and technical data element details for LEMUR-2-SUSURRUS (NORAD 46502). LEMUR-2-SUSURRUS can be tracked NOW for your location showing map with azimuth and elevation plus other details from your city location.

Track the satellite on the map from your city or location and see movement details for azimuth, elevation, latitude, longitude, range, height, and movement on the map or in text.







IsCatalogInMostPopularTable: catalog: 46502, numindb: 18
Update: records affected: 1



GetName: 46502 LEMUR-2-SUSURRUS

Hit Count: updated at: Sat, 05 Dec 2020 05:25:40 GMT